CW1490 Weather Reports


Display with metric or nautical units.
time (UTC)temp
F
wind
direction
speed
MPH
gust
MPH
rain 1hr
in
rain 24hr
in
rain mn
in
humidity
%
barometer
mb
20170628140247 68 297 4.0 13.0 0.01 0.21 0.07 67 1016.1
20170628134753 67 4 4.0 14.0 0.01 0.21 0.07 68 1016.2
20170628133242 67 291 1.0 6.0 0.01 0.21 0.07 73 1016.3
20170628131737 65 77 1.0 4.0 0.01 0.21 0.07 85 1016.3
20170628130232 61 47 2.0 5.0 0.00 0.20 0.06 90 1016.3
20170628124733 59 58 5.0 7.0 0.00 0.20 0.06 96 1016.5
20170628123225 57 41 1.0 4.0 0.00 0.20 0.06 97 1016.4
20170628121721 56 29 2.0 6.0 0.00 0.20 0.06 97 1016.5
20170628120219 55 21 3.0 5.0 0.01 0.20 0.06 97 1016.4
20170628114715 54 48 0.0 3.0 0.01 0.20 0.06 97 1016.3
20170628113212 52 185 0.0 4.0 0.01 0.20 0.06 97 1016.3
20170628111710 52 242 1.0 3.0 0.01 0.20 0.06 97 1016.3
20170628110212 52 219 1.0 5.0 0.00 0.19 0.05 97 1016.3
20170628104707 51 220 2.0 4.0 0.00 0.19 0.05 97 1016.3
20170628103204 50 212 2.0 5.0 0.01 0.19 0.05 97 1016.4
20170628101700 49 217 1.0 3.0 0.01 0.19 0.05 97 1016.2
20170628100203 49 208 2.0 5.0 0.01 0.20 0.05 97 1015.9
20170628094656 49 234 2.0 5.0 0.01 0.20 0.05 97 1015.7
20170628093158 49 214 3.0 5.0 0.00 0.19 0.04 97 1015.7
20170628091657 49 193 2.0 7.0 0.00 0.19 0.04 97 1015.5
20170628090154 49 209 2.0 4.0 0.01 0.19 0.04 97 1015.2
20170628084650 49 191 3.0 5.0 0.01 0.19 0.04 97 1015.0
20170628083148 49 212 2.0 4.0 0.01 0.19 0.04 97 1014.8
20170628081648 48 220 4.0 5.0 0.01 0.19 0.04 97 1014.8
20170628080344 49 235 2.0 4.0 0.01 0.18 0.03 97 1014.9
20170628074643 49 225 2.0 4.0 0.01 0.19 0.03 97 1015.0
20170628073143 49 222 0.0 3.0 0.01 0.19 0.03 97 1014.9
20170628071643 49 222 1.0 4.0 0.01 0.19 0.03 97 1014.9
20170628070147 49 228 1.0 3.0 0.00 0.18 0.02 97 1015.0
20170628064641 49 228 1.0 3.0 0.01 0.18 0.02 97 1014.9
20170628063142 49 221 2.0 3.0 0.01 0.18 0.02 97 1014.7
20170628061638 49 226 2.0 4.0 0.01 0.18 0.02 97 1014.9
20170628060140 48 216 1.0 3.0 0.01 0.19 0.02 97 1015.0
20170628054638 49 216 1.0 3.0 0.01 0.18 0.01 97 1015.0
20170628053142 49 249 1.0 3.0 0.01 0.18 0.01 97 1014.9
20170628051633 49 216 1.0 4.0 0.01 0.18 0.01 96 1014.8
20170628050132 49 187 1.0 3.0 0.01 0.19 0.01 97 1014.7
20170628044638 49 219 2.0 4.0 0.01 0.18 0.00 97 1014.7
20170628043145 49 185 1.0 3.0 0.01 0.18 0.00 96 1014.7
20170628041626 50 230 2.0 3.0 0.01 0.18 0.00 96 1014.7
20170628040126 50 230 0.0 3.0 0.02 0.18 0.18 96 1014.6
20170628034631 50 238 1.0 3.0 0.01 0.17 0.17 96 1014.5
20170628033120 50 248 0.0 3.0 0.01 0.17 0.17 96 1014.5
20170628031619 51 315 1.0 3.0 0.02 0.17 0.17 96 1014.4
20170628030116 51 268 1.0 3.0 0.01 0.16 0.16 96 1014.1
20170628024619 52 217 0.0 6.0 0.02 0.16 0.16 96 1013.9
20170628023116 52 9 0.0 2.0 0.02 0.16 0.16 96 1014.0
20170628021619 52 9 1.0 4.0 0.01 0.15 0.15 96 1013.9
20170628020114 53 289 1.0 3.0 0.02 0.17 0.15 96 1013.9
20170628014819 53 18 0.0 5.0 0.01 0.16 0.14 96 1013.7
20170628013114 54 230 1.0 3.0 0.02 0.16 0.14 96 1013.4
20170628011611 54 199 2.0 3.0 0.02 0.16 0.14 95 1013.2
20170628010110 55 219 0.0 2.0 0.02 0.17 0.13 95 1013.0
20170628004601 56 213 1.0 4.0 0.02 0.17 0.13 95 1012.7
20170628003059 56 264 0.0 3.0 0.02 0.16 0.12 95 1012.4
20170628001602 57 308 1.0 2.0 0.02 0.16 0.12 95 1012.2
20170628000057 58 143 0.0 2.0 0.01 0.15 0.11 94 1012.0
20170627234601 58 149 1.0 5.0 0.02 0.15 0.11 94 1012.2
20170627233058 58 260 1.0 2.0 0.01 0.14 0.10 94 1012.4
20170627231556 59 293 0.0 4.0 0.02 0.14 0.10 94 1012.2
20170627230115 60 83 0.0 3.0 0.02 0.14 0.10 95 1012.1
20170627224556 60 216 0.0 2.0 0.01 0.13 0.09 94 1012.2
20170627223100 60 120 0.0 3.0 0.02 0.13 0.09 94 1012.1
20170627221553 59 122 0.0 2.0 0.01 0.12 0.08 94 1011.7
20170627220056 59 127 2.0 4.0 0.02 0.12 0.08 94 1011.2
20170627214600 59 56 0.0 2.0 0.02 0.12 0.08 94 1011.5
20170627213053 58 37 3.0 6.0 0.02 0.11 0.07 94 1011.4
20170627211557 58 35 2.0 7.0 0.02 0.11 0.07 95 1011.5
20170627210054 57 315 1.0 5.0 0.02 0.10 0.06 94 1011.5
20170627204551 57 4 2.0 6.0 0.02 0.10 0.06 94 1011.1
20170627203053 57 8 3.0 9.0 0.01 0.09 0.05 93 1011.2
20170627201553 58 314 7.0 22.0 0.01 0.09 0.05 91 1011.5
20170627200049 60 14 2.0 10.0 0.00 0.08 0.04 88 1011.4
20170627194550 63 65 6.0 11.0 0.00 0.08 0.04 85 1011.3
20170627193050 64 359 3.0 12.0 0.00 0.08 0.04 85 1011.1
20170627191547 66 21 4.0 6.0 0.00 0.08 0.04 84 1011.1
20170627190049 67 4 6.0 10.0 0.00 0.08 0.04 80 1011.4
20170627184553 72 354 5.0 9.0 0.00 0.08 0.04 74 1011.4
20170627183241 71 341 1.0 4.0 0.00 0.08 0.04 77 1011.5
20170627181538 68 237 0.0 5.0 0.00 0.08 0.04 79 1011.9
20170627180037 68 141 3.0 7.0 0.00 0.08 0.04 80 1012.0
20170627174537 67 127 2.0 6.0 0.00 0.08 0.04 79 1012.3
20170627173028 66 155 1.0 4.0 0.00 0.08 0.04 82 1012.6
20170627171531 65 215 2.0 4.0 0.00 0.08 0.04 82 1012.9
20170627170028 64 212 1.0 5.0 0.00 0.08 0.04 82 1013.2
20170627164523 64 216 2.0 5.0 0.00 0.08 0.04 82 1013.3
20170627163026 65 201 3.0 4.0 0.00 0.08 0.04 81 1013.4
20170627161519 65 170 3.0 6.0 0.00 0.08 0.04 79 1013.5
20170627160035 65 161 3.0 6.0 0.00 0.08 0.04 80 1013.6
20170627154516 64 251 4.0 7.0 0.00 0.08 0.04 80 1014.0
20170627153010 64 145 4.0 9.0 0.00 0.08 0.04 82 1014.2
20170627151506 64 244 3.0 7.0 0.00 0.08 0.04 84 1014.2
20170627150004 63 185 3.0 7.0 0.00 0.08 0.04 87 1014.3
20170627144509 63 225 1.0 3.0 0.00 0.08 0.04 89 1014.5
20170627143002 62 193 0.0 4.0 0.00 0.08 0.04 89 1014.5
20170627141501 61 242 1.0 5.0 0.00 0.08 0.04 90 1014.6